owner,sensor,date,latitude,longitude,vertical_datum,wind_speed,wind_to_direction,wind_speed_of_gust,qcFlag 
DISL,ioos:station:DISL:MHPA:1,2013-03-01T00:00:00Z,30.6671,-87.9365,8.5,5.21,327.1,-9999.0,'1111122,1111122,1111122' 
DISL,ioos:station:DISL:MHPA:1,2013-03-01T00:30:00Z,30.6671,-87.9365,8.5,4.21,324.5,-9999.0,'1111122,1111122,1111122' 
DISL,ioos:station:DISL:MHPA:1,2013-03-01T01:00:00Z,30.6671,-87.9365,8.5,3.58,317.5,-9999.0,'1111122,1111122,1111122' 
DISL,ioos:station:DISL:MHPA:1,2013-03-01T01:30:00Z,30.6671,-87.9365,8.5,4.15,308.0,-9999.0,'1111122,1111122,1111122' 
DISL,ioos:station:DISL:MHPA:1,2013-03-01T02:00:00Z,30.6671,-87.9365,8.5,3.9,320.2,-9999.0,'1111122,1111122,1111122' 
DISL,ioos:station:DISL:MHPA:1,2013-03-01T02:30:00Z,30.6671,-87.9365,8.5,4.43,314.1,-9999.0,'1111122,1111122,1111122' 
DISL,ioos:station:DISL:MHPA:1,2013-03-01T03:00:00Z,30.6671,-87.9365,8.5,4.5,318.6,-9999.0,'1111122,1111122,1111122' 
DISL,ioos:station:DISL:MHPA:1,2013-03-01T03:30:00Z,30.6671,-87.9365,8.5,4.26,312.7,-9999.0,'1111122,1111122,1111122' 
DISL,ioos:station:DISL:MHPA:1,2013-03-01T04:00:00Z,30.6671,-87.9365,8.5,4.0,321.1,-9999.0,'1111122,1111122,1111122' 
DISL,ioos:station:DISL:MHPA:1,2013-03-01T04:30:00Z,30.6671,-87.9365,8.5,5.11,320.0,-9999.0,'1111122,1111122,1111122' 
DISL,ioos:station:DISL:MHPA:1,2013-03-01T05:00:00Z,30.6671,-87.9365,8.5,5.24,336.1,-9999.0,'1111122,1111122,1111122' 
DISL,ioos:station:DISL:MHPA:1,2013-03-01T05:30:00Z,30.6671,-87.9365,8.5,3.91,346.5,-9999.0,'1111122,1111122,1111122' 
DISL,ioos:station:DISL:MHPA:1,2013-03-01T06:00:00Z,30.6671,-87.9365,8.5,3.46,326.9,-9999.0,'1111122,1111122,1111122' 
DISL,ioos:station:DISL:MHPA:1,2013-03-01T06:30:00Z,30.6671,-87.9365,8.5,3.49,326.4,-9999.0,'1111122,1111122,1111122' 
DISL,ioos:station:DISL:MHPA:1,2013-03-01T07:00:00Z,30.6671,-87.9365,8.5,3.12,329.7,-9999.0,'1111122,1111122,1111122' 
DISL,ioos:station:DISL:MHPA:1,2013-03-01T07:30:00Z,30.6671,-87.9365,8.5,2.68,336.3,-9999.0,'1111122,1111122,1111122' 
DISL,ioos:station:DISL:MHPA:1,2013-03-01T08:00:00Z,30.6671,-87.9365,8.5,2.4,345.7,-9999.0,'1111122,1111122,1111122' 
DISL,ioos:station:DISL:MHPA:1,2013-03-01T08:30:00Z,30.6671,-87.9365,8.5,1.64,347.4,-9999.0,'1111122,1111122,1111122' 
DISL,ioos:station:DISL:MHPA:1,2013-03-01T09:00:00Z,30.6671,-87.9365,8.5,0.84,4.87,-9999.0,'1111122,1111122,1111122' 
DISL,ioos:station:DISL:MHPA:1,2013-03-01T09:30:00Z,30.6671,-87.9365,8.5,0.99,15.18,-9999.0,'1111122,1111122,1111122' 
DISL,ioos:station:DISL:MHPA:1,2013-03-01T10:00:00Z,30.6671,-87.9365,8.5,1.14,1.474,-9999.0,'1111122,1111122,1111122' 
DISL,ioos:station:DISL:MHPA:1,2013-03-01T10:30:00Z,30.6671,-87.9365,8.5,1.24,7.3,-9999.0,'1111122,1111122,1111122' 
DISL,ioos:station:DISL:MHPA:1,2013-03-01T11:00:00Z,30.6671,-87.9365,8.5,1.27,26.03,-9999.0,'1111122,1111122,1111122' 
DISL,ioos:station:DISL:MHPA:1,2013-03-01T11:30:00Z,30.6671,-87.9365,8.5,1.34,29.44,-9999.0,'1111122,1111122,1111122' 
DISL,ioos:station:DISL:MHPA:1,2013-03-01T12:00:00Z,30.6671,-87.9365,8.5,1.22,19.18,-9999.0,'1111122,1111122,1111122' 
DISL,ioos:station:DISL:MHPA:1,2013-03-01T12:30:00Z,30.6671,-87.9365,8.5,1.06,12.36,-9999.0,'1111122,1111122,1111122' 
DISL,ioos:station:DISL:MHPA:1,2013-03-01T13:00:00Z,30.6671,-87.9365,8.5,0.82,21.55,-9999.0,'1111122,1111122,1111122' 
DISL,ioos:station:DISL:MHPA:1,2013-03-01T13:30:00Z,30.6671,-87.9365,8.5,1.25,359.4,-9999.0,'1111122,1111122,1111122' 
DISL,ioos:station:DISL:MHPA:1,2013-03-01T14:00:00Z,30.6671,-87.9365,8.5,0.62,29.54,-9999.0,'1111122,1111122,1111122' 
DISL,ioos:station:DISL:MHPA:1,2013-03-01T14:30:00Z,30.6671,-87.9365,8.5,0.81,345.8,-9999.0,'1111122,1111122,1111122' 
DISL,ioos:station:DISL:MHPA:1,2013-03-01T15:00:00Z,30.6671,-87.9365,8.5,1.4,328.5,-9999.0,'1111122,1111122,1111122' 
DISL,ioos:station:DISL:MHPA:1,2013-03-01T15:30:00Z,30.6671,-87.9365,8.5,1.18,1.973,-9999.0,'1111122,1111122,1111122' 
DISL,ioos:station:DISL:MHPA:1,2013-03-01T16:00:00Z,30.6671,-87.9365,8.5,1.17,283.4,-9999.0,'1111122,1111122,1111122' 
DISL,ioos:station:DISL:MHPA:1,2013-03-01T16:30:00Z,30.6671,-87.9365,8.5,1.84,213.6,-9999.0,'1111122,1111122,1111122' 
DISL,ioos:station:DISL:MHPA:1,2013-03-01T17:00:00Z,30.6671,-87.9365,8.5,2.44,259.0,-9999.0,'1111122,1111122,1111122' 
DISL,ioos:station:DISL:MHPA:1,2013-03-01T17:30:00Z,30.6671,-87.9365,8.5,2.09,271.3,-9999.0,'1111122,1111122,1111122' 
DISL,ioos:station:DISL:MHPA:1,2013-03-01T18:00:00Z,30.6671,-87.9365,8.5,3.29,220.1,-9999.0,'1111122,1111122,1111122' 
DISL,ioos:station:DISL:MHPA:1,2013-03-01T18:30:00Z,30.6671,-87.9365,8.5,2.6,219.8,-9999.0,'1111122,1111122,1111122' 
DISL,ioos:station:DISL:MHPA:1,2013-03-01T19:00:00Z,30.6671,-87.9365,8.5,3.76,193.3,-9999.0,'1111122,1111122,1111122' 
DISL,ioos:station:DISL:MHPA:1,2013-03-01T19:30:00Z,30.6671,-87.9365,8.5,5.25,183.7,-9999.0,'1111122,1111122,1111122' 
DISL,ioos:station:DISL:MHPA:1,2013-03-01T20:00:00Z,30.6671,-87.9365,8.5,5.88,182.6,-9999.0,'1111122,1111122,1111122' 
DISL,ioos:station:DISL:MHPA:1,2013-03-01T20:30:00Z,30.6671,-87.9365,8.5,6.18,171.8,-9999.0,'1111122,1111122,1111122' 
DISL,ioos:station:DISL:MHPA:1,2013-03-01T21:00:00Z,30.6671,-87.9365,8.5,6.13,172.3,-9999.0,'1111122,1111122,1111122' 
DISL,ioos:station:DISL:MHPA:1,2013-03-01T21:30:00Z,30.6671,-87.9365,8.5,5.68,179.1,-9999.0,'1111122,1111122,1111122' 
DISL,ioos:station:DISL:MHPA:1,2013-03-01T22:00:00Z,30.6671,-87.9365,8.5,5.04,174.4,-9999.0,'1111122,1111122,1111122' 
DISL,ioos:station:DISL:MHPA:1,2013-03-01T22:30:00Z,30.6671,-87.9365,8.5,4.41,170.7,-9999.0,'1111122,1111122,1111122' 
DISL,ioos:station:DISL:MHPA:1,2013-03-01T23:00:00Z,30.6671,-87.9365,8.5,3.02,150.3,-9999.0,'1111122,1111122,1111122' 
DISL,ioos:station:DISL:MHPA:1,2013-03-01T23:30:00Z,30.6671,-87.9365,8.5,2.31,147.6,-9999.0,'1111122,1111122,1111122' 
DISL,ioos:station:DISL:MHPA:1,2013-03-02T00:00:00Z,30.6671,-87.9365,8.5,1.83,337.9,-9999.0,'1111122,1111122,1111122' 
DISL,ioos:station:DISL:MHPA:1,2013-03-02T00:30:00Z,30.6671,-87.9365,8.5,3.25,326.0,-9999.0,'1111122,1111122,1111122' 
DISL,ioos:station:DISL:MHPA:1,2013-03-02T01:00:00Z,30.6671,-87.9365,8.5,3.59,334.5,-9999.0,'1111122,1111122,1111122' 
DISL,ioos:station:DISL:MHPA:1,2013-03-02T01:30:00Z,30.6671,-87.9365,8.5,4.43,327.6,-9999.0,'1111122,1111122,1111122' 
DISL,ioos:station:DISL:MHPA:1,2013-03-02T02:00:00Z,30.6671,-87.9365,8.5,4.05,334.7,-9999.0,'1111122,1111122,1111122' 
DISL,ioos:station:DISL:MHPA:1,2013-03-02T02:30:00Z,30.6671,-87.9365,8.5,5.0,344.2,-9999.0,'1111122,1111122,1111122' 
DISL,ioos:station:DISL:MHPA:1,2013-03-02T03:00:00Z,30.6671,-87.9365,8.5,5.19,342.5,-9999.0,'1111122,1111122,1111122' 
DISL,ioos:station:DISL:MHPA:1,2013-03-02T03:30:00Z,30.6671,-87.9365,8.5,6.14,338.9,-9999.0,'1111122,1111122,1111122' 
DISL,ioos:station:DISL:MHPA:1,2013-03-02T04:00:00Z,30.6671,-87.9365,8.5,6.26,333.4,-9999.0,'1111122,1111122,1111122' 
DISL,ioos:station:DISL:MHPA:1,2013-03-02T04:30:00Z,30.6671,-87.9365,8.5,5.36,337.2,-9999.0,'1111122,1111122,1111122' 
DISL,ioos:station:DISL:MHPA:1,2013-03-02T05:00:00Z,30.6671,-87.9365,8.5,3.52,346.7,-9999.0,'1111122,1111122,1111122' 
DISL,ioos:station:DISL:MHPA:1,2013-03-02T05:30:00Z,30.6671,-87.9365,8.5,2.72,342.3,-9999.0,'1111122,1111122,1111122' 
DISL,ioos:station:DISL:MHPA:1,2013-03-02T06:00:00Z,30.6671,-87.9365,8.5,4.34,339.4,-9999.0,'1111122,1111122,1111122' 
DISL,ioos:station:DISL:MHPA:1,2013-03-02T06:30:00Z,30.6671,-87.9365,8.5,3.37,326.4,-9999.0,'1111122,1111122,1111122' 
DISL,ioos:station:DISL:MHPA:1,2013-03-02T07:00:00Z,30.6671,-87.9365,8.5,2.27,325.5,-9999.0,'1111122,1111122,1111122' 
DISL,ioos:station:DISL:MHPA:1,2013-03-02T07:30:00Z,30.6671,-87.9365,8.5,3.98,312.6,-9999.0,'1111122,1111122,1111122' 
DISL,ioos:station:DISL:MHPA:1,2013-03-02T08:00:00Z,30.6671,-87.9365,8.5,3.87,320.1,-9999.0,'1111122,1111122,1111122' 
DISL,ioos:station:DISL:MHPA:1,2013-03-02T08:30:00Z,30.6671,-87.9365,8.5,4.07,317.8,-9999.0,'1111122,1111122,1111122' 
DISL,ioos:station:DISL:MHPA:1,2013-03-02T09:00:00Z,30.6671,-87.9365,8.5,4.41,314.4,-9999.0,'1111122,1111122,1111122' 
DISL,ioos:station:DISL:MHPA:1,2013-03-02T09:30:00Z,30.6671,-87.9365,8.5,5.05,320.7,-9999.0,'1111122,1111122,1111122' 
DISL,ioos:station:DISL:MHPA:1,2013-03-02T10:00:00Z,30.6671,-87.9365,8.5,3.95,324.4,-9999.0,'1111122,1111122,1111122' 
DISL,ioos:station:DISL:MHPA:1,2013-03-02T10:30:00Z,30.6671,-87.9365,8.5,2.73,335.2,-9999.0,'1111122,1111122,1111122' 
DISL,ioos:station:DISL:MHPA:1,2013-03-02T11:00:00Z,30.6671,-87.9365,8.5,2.81,332.1,-9999.0,'1111122,1111122,1111122' 
DISL,ioos:station:DISL:MHPA:1,2013-03-02T11:30:00Z,30.6671,-87.9365,8.5,3.45,334.6,-9999.0,'1111122,1111122,1111122' 
DISL,ioos:station:DISL:MHPA:1,2013-03-02T12:00:00Z,30.6671,-87.9365,8.5,3.04,339.1,-9999.0,'1111122,1111122,1111122' 
DISL,ioos:station:DISL:MHPA:1,2013-03-02T12:30:00Z,30.6671,-87.9365,8.5,2.95,345.4,-9999.0,'1111122,1111122,1111122' 
DISL,ioos:station:DISL:MHPA:1,2013-03-02T13:00:00Z,30.6671,-87.9365,8.5,3.39,354.5,-9999.0,'1111122,1111122,1111122' 
DISL,ioos:station:DISL:MHPA:1,2013-03-02T13:30:00Z,30.6671,-87.9365,8.5,3.41,346.4,-9999.0,'1111122,1111122,1111122' 
DISL,ioos:station:DISL:MHPA:1,2013-03-02T14:00:00Z,30.6671,-87.9365,8.5,3.52,341.0,-9999.0,'1111122,1111122,1111122' 
DISL,ioos:station:DISL:MHPA:1,2013-03-02T14:30:00Z,30.6671,-87.9365,8.5,4.39,331.3,-9999.0,'1111122,1111122,1111122' 
DISL,ioos:station:DISL:MHPA:1,2013-03-02T15:00:00Z,30.6671,-87.9365,8.5,4.57,335.3,-9999.0,'1111122,1111122,1111122' 
DISL,ioos:station:DISL:MHPA:1,2013-03-02T15:30:00Z,30.6671,-87.9365,8.5,4.28,334.2,-9999.0,'1111122,1111122,1111122' 
DISL,ioos:station:DISL:MHPA:1,2013-03-02T16:00:00Z,30.6671,-87.9365,8.5,4.8,343.2,-9999.0,'1111122,1111122,1111122' 
DISL,ioos:station:DISL:MHPA:1,2013-03-02T16:30:00Z,30.6671,-87.9365,8.5,4.83,327.4,-9999.0,'1111122,1111122,1111122' 
DISL,ioos:station:DISL:MHPA:1,2013-03-02T17:00:00Z,30.6671,-87.9365,8.5,5.5,324.2,-9999.0,'1111122,1111122,1111122' 
DISL,ioos:station:DISL:MHPA:1,2013-03-02T17:30:00Z,30.6671,-87.9365,8.5,5.59,321.0,-9999.0,'1111122,1111122,1111122' 
DISL,ioos:station:DISL:MHPA:1,2013-03-02T18:00:00Z,30.6671,-87.9365,8.5,6.32,314.2,-9999.0,'1111122,1111122,1111122' 
DISL,ioos:station:DISL:MHPA:1,2013-03-02T18:30:00Z,30.6671,-87.9365,8.5,7.45,300.2,-9999.0,'1111122,1111122,1111122' 
DISL,ioos:station:DISL:MHPA:1,2013-03-02T19:00:00Z,30.6671,-87.9365,8.5,7.26,315.3,-9999.0,'1111122,1111122,1111122' 
DISL,ioos:station:DISL:MHPA:1,2013-03-02T19:30:00Z,30.6671,-87.9365,8.5,7.58,309.9,-9999.0,'1111122,1111122,1111122' 
DISL,ioos:station:DISL:MHPA:1,2013-03-02T20:00:00Z,30.6671,-87.9365,8.5,7.66,315.3,-9999.0,'1111122,1111122,1111122' 
DISL,ioos:station:DISL:MHPA:1,2013-03-02T20:30:00Z,30.6671,-87.9365,8.5,7.44,318.9,-9999.0,'1111122,1111122,1111122' 
DISL,ioos:station:DISL:MHPA:1,2013-03-02T21:00:00Z,30.6671,-87.9365,8.5,6.71,325.8,-9999.0,'1111122,1111122,1111122' 
DISL,ioos:station:DISL:MHPA:1,2013-03-02T21:30:00Z,30.6671,-87.9365,8.5,6.82,321.8,-9999.0,'1111122,1111122,1111122' 
DISL,ioos:station:DISL:MHPA:1,2013-03-02T22:00:00Z,30.6671,-87.9365,8.5,6.2,335.5,-9999.0,'1111122,1111122,1111122' 
DISL,ioos:station:DISL:MHPA:1,2013-03-02T22:30:00Z,30.6671,-87.9365,8.5,6.34,337.1,-9999.0,'1111122,1111122,1111122' 
DISL,ioos:station:DISL:MHPA:1,2013-03-02T23:00:00Z,30.6671,-87.9365,8.5,5.63,344.0,-9999.0,'1111122,1111122,1111122' 
DISL,ioos:station:DISL:MHPA:1,2013-03-02T23:30:00Z,30.6671,-87.9365,8.5,5.39,334.4,-9999.0,'1111122,1111122,1111122' 
DISL,ioos:station:DISL:MHPA:1,2013-03-03T00:00:00Z,30.6671,-87.9365,8.5,5.7,348.3,-9999.0,'1111122,1111122,1111122' 
DISL,ioos:station:DISL:MHPA:1,2013-03-03T00:30:00Z,30.6671,-87.9365,8.5,6.02,334.1,-9999.0,'1111122,1111122,1111122' 
DISL,ioos:station:DISL:MHPA:1,2013-03-03T01:00:00Z,30.6671,-87.9365,8.5,5.67,346.7,-9999.0,'1111122,1111122,1111122' 
DISL,ioos:station:DISL:MHPA:1,2013-03-03T01:30:00Z,30.6671,-87.9365,8.5,6.71,329.0,-9999.0,'1111122,1111122,1111122' 
DISL,ioos:station:DISL:MHPA:1,2013-03-03T02:00:00Z,30.6671,-87.9365,8.5,5.71,342.3,-9999.0,'1111122,1111122,1111122' 
DISL,ioos:station:DISL:MHPA:1,2013-03-03T02:30:00Z,30.6671,-87.9365,8.5,5.99,340.5,-9999.0,'1111122,1111122,1111122' 
DISL,ioos:station:DISL:MHPA:1,2013-03-03T03:00:00Z,30.6671,-87.9365,8.5,5.59,331.7,-9999.0,'1111122,1111122,1111122' 
DISL,ioos:station:DISL:MHPA:1,2013-03-03T03:30:00Z,30.6671,-87.9365,8.5,6.37,331.1,-9999.0,'1111122,1111122,1111122' 
DISL,ioos:station:DISL:MHPA:1,2013-03-03T04:00:00Z,30.6671,-87.9365,8.5,5.53,328.2,-9999.0,'1111122,1111122,1111122' 
DISL,ioos:station:DISL:MHPA:1,2013-03-03T04:30:00Z,30.6671,-87.9365,8.5,6.91,316.8,-9999.0,'1111122,1111122,1111122' 
DISL,ioos:station:DISL:MHPA:1,2013-03-03T05:00:00Z,30.6671,-87.9365,8.5,5.71,323.1,-9999.0,'1111122,1111122,1111122' 
DISL,ioos:station:DISL:MHPA:1,2013-03-03T05:30:00Z,30.6671,-87.9365,8.5,6.42,333.0,-9999.0,'1111122,1111122,1111122' 
DISL,ioos:station:DISL:MHPA:1,2013-03-03T06:00:00Z,30.6671,-87.9365,8.5,6.58,325.5,-9999.0,'1111122,1111122,1111122' 
DISL,ioos:station:DISL:MHPA:1,2013-03-03T06:30:00Z,30.6671,-87.9365,8.5,5.61,331.2,-9999.0,'1111122,1111122,1111122' 
DISL,ioos:station:DISL:MHPA:1,2013-03-03T07:00:00Z,30.6671,-87.9365,8.5,4.88,330.2,-9999.0,'1111122,1111122,1111122' 
DISL,ioos:station:DISL:MHPA:1,2013-03-03T07:30:00Z,30.6671,-87.9365,8.5,5.36,325.9,-9999.0,'1111122,1111122,1111122' 
DISL,ioos:station:DISL:MHPA:1,2013-03-03T08:00:00Z,30.6671,-87.9365,8.5,4.94,326.5,-9999.0,'1111122,1111122,1111122' 
DISL,ioos:station:DISL:MHPA:1,2013-03-03T08:30:00Z,30.6671,-87.9365,8.5,5.05,324.2,-9999.0,'1111122,1111122,1111122' 
DISL,ioos:station:DISL:MHPA:1,2013-03-03T09:00:00Z,30.6671,-87.9365,8.5,5.06,325.0,-9999.0,'1111122,1111122,1111122' 
DISL,ioos:station:DISL:MHPA:1,2013-03-03T09:30:00Z,30.6671,-87.9365,8.5,5.76,334.3,-9999.0,'1111122,1111122,1111122' 
DISL,ioos:station:DISL:MHPA:1,2013-03-03T10:00:00Z,30.6671,-87.9365,8.5,4.8,330.4,-9999.0,'1111122,1111122,1111122' 
DISL,ioos:station:DISL:MHPA:1,2013-03-03T10:30:00Z,30.6671,-87.9365,8.5,3.69,326.6,-9999.0,'1111122,1111122,1111122' 
DISL,ioos:station:DISL:MHPA:1,2013-03-03T11:00:00Z,30.6671,-87.9365,8.5,4.57,324.1,-9999.0,'1111122,1111122,1111122' 
DISL,ioos:station:DISL:MHPA:1,2013-03-03T11:30:00Z,30.6671,-87.9365,8.5,3.98,327.1,-9999.0,'1111122,1111122,1111122' 
DISL,ioos:station:DISL:MHPA:1,2013-03-03T12:00:00Z,30.6671,-87.9365,8.5,3.92,333.2,-9999.0,'1111122,1111122,1111122' 
DISL,ioos:station:DISL:MHPA:1,2013-03-03T12:30:00Z,30.6671,-87.9365,8.5,4.01,331.7,-9999.0,'1111122,1111122,1111122' 
DISL,ioos:station:DISL:MHPA:1,2013-03-03T13:00:00Z,30.6671,-87.9365,8.5,4.47,329.5,-9999.0,'1111122,1111122,1111122' 
DISL,ioos:station:DISL:MHPA:1,2013-03-03T13:30:00Z,30.6671,-87.9365,8.5,4.84,343.5,-9999.0,'1111122,1111122,1111122' 
DISL,ioos:station:DISL:MHPA:1,2013-03-03T14:00:00Z,30.6671,-87.9365,8.5,4.67,337.3,-9999.0,'1111122,1111122,1111122' 
DISL,ioos:station:DISL:MHPA:1,2013-03-03T14:30:00Z,30.6671,-87.9365,8.5,4.55,345.8,-9999.0,'1111122,1111122,1111122' 
DISL,ioos:station:DISL:MHPA:1,2013-03-03T15:00:00Z,30.6671,-87.9365,8.5,5.27,336.7,-9999.0,'1111122,1111122,1111122' 
DISL,ioos:station:DISL:MHPA:1,2013-03-03T15:30:00Z,30.6671,-87.9365,8.5,5.36,320.4,-9999.0,'1111122,1111122,1111122' 
DISL,ioos:station:DISL:MHPA:1,2013-03-03T16:00:00Z,30.6671,-87.9365,8.5,5.09,331.9,-9999.0,'1111122,1111122,1111122' 
DISL,ioos:station:DISL:MHPA:1,2013-03-03T16:30:00Z,30.6671,-87.9365,8.5,5.73,328.7,-9999.0,'1111122,1111122,1111122' 
DISL,ioos:station:DISL:MHPA:1,2013-03-03T17:00:00Z,30.6671,-87.9365,8.5,4.08,350.4,-9999.0,'1111122,1111122,1111122' 
DISL,ioos:station:DISL:MHPA:1,2013-03-03T17:30:00Z,30.6671,-87.9365,8.5,4.15,340.0,-9999.0,'1111122,1111122,1111122' 
DISL,ioos:station:DISL:MHPA:1,2013-03-03T18:00:00Z,30.6671,-87.9365,8.5,3.99,337.4,-9999.0,'1111122,1111122,1111122' 
DISL,ioos:station:DISL:MHPA:1,2013-03-03T18:30:00Z,30.6671,-87.9365,8.5,3.78,336.0,-9999.0,'1111122,1111122,1111122' 
DISL,ioos:station:DISL:MHPA:1,2013-03-03T19:00:00Z,30.6671,-87.9365,8.5,4.47,335.4,-9999.0,'1111122,1111122,1111122' 
DISL,ioos:station:DISL:MHPA:1,2013-03-03T19:30:00Z,30.6671,-87.9365,8.5,3.1,333.3,-9999.0,'1111122,1111122,1111122' 
DISL,ioos:station:DISL:MHPA:1,2013-03-03T20:00:00Z,30.6671,-87.9365,8.5,3.93,305.0,-9999.0,'1111122,1111122,1111122' 
DISL,ioos:station:DISL:MHPA:1,2013-03-03T20:30:00Z,30.6671,-87.9365,8.5,4.58,298.7,-9999.0,'1111122,1111122,1111122' 
DISL,ioos:station:DISL:MHPA:1,2013-03-03T21:00:00Z,30.6671,-87.9365,8.5,4.46,333.0,-9999.0,'1111122,1111122,1111122' 
DISL,ioos:station:DISL:MHPA:1,2013-03-03T21:30:00Z,30.6671,-87.9365,8.5,3.81,320.6,-9999.0,'1111122,1111122,1111122' 
DISL,ioos:station:DISL:MHPA:1,2013-03-03T22:00:00Z,30.6671,-87.9365,8.5,4.13,332.4,-9999.0,'1111122,1111122,1111122' 
DISL,ioos:station:DISL:MHPA:1,2013-03-03T22:30:00Z,30.6671,-87.9365,8.5,4.12,306.6,-9999.0,'1111122,1111122,1111122' 
DISL,ioos:station:DISL:MHPA:1,2013-03-03T23:00:00Z,30.6671,-87.9365,8.5,3.27,332.4,-9999.0,'1111122,1111122,1111122' 
DISL,ioos:station:DISL:MHPA:1,2013-03-03T23:30:00Z,30.6671,-87.9365,8.5,1.96,300.2,-9999.0,'1111122,1111122,1111122' 
DISL,ioos:station:DISL:MHPA:1,2013-03-04T00:00:00Z,30.6671,-87.9365,8.5,4.13,168.9,-9999.0,'1111122,1111122,1111122' 
DISL,ioos:station:DISL:MHPA:1,2013-03-04T00:30:00Z,30.6671,-87.9365,8.5,3.98,167.4,-9999.0,'1111122,1111122,1111122' 
DISL,ioos:station:DISL:MHPA:1,2013-03-04T01:00:00Z,30.6671,-87.9365,8.5,1.87,116.8,-9999.0,'1111122,1111122,1111122' 
DISL,ioos:station:DISL:MHPA:1,2013-03-04T01:30:00Z,30.6671,-87.9365,8.5,1.26,113.3,-9999.0,'1111122,1111122,1111122' 
DISL,ioos:station:DISL:MHPA:1,2013-03-04T02:00:00Z,30.6671,-87.9365,8.5,1.42,112.5,-9999.0,'1111122,1111122,1111122' 
DISL,ioos:station:DISL:MHPA:1,2013-03-04T02:30:00Z,30.6671,-87.9365,8.5,0.82,84.5,-9999.0,'1111122,1111122,1111122' 
DISL,ioos:station:DISL:MHPA:1,2013-03-04T03:00:00Z,30.6671,-87.9365,8.5,1.46,174.3,-9999.0,'1111122,1111122,1111122' 
DISL,ioos:station:DISL:MHPA:1,2013-03-04T03:30:00Z,30.6671,-87.9365,8.5,0.63,66.41,-9999.0,'1111122,1111122,1111122' 
DISL,ioos:station:DISL:MHPA:1,2013-03-04T04:00:00Z,30.6671,-87.9365,8.5,1.35,109.1,-9999.0,'1111122,1111122,1111122' 
DISL,ioos:station:DISL:MHPA:1,2013-03-04T04:30:00Z,30.6671,-87.9365,8.5,0.91,113.7,-9999.0,'1111122,1111122,1111122' 
DISL,ioos:station:DISL:MHPA:1,2013-03-04T05:00:00Z,30.6671,-87.9365,8.5,0.99,110.5,-9999.0,'1111122,1111122,1111122' 
DISL,ioos:station:DISL:MHPA:1,2013-03-04T05:30:00Z,30.6671,-87.9365,8.5,0.81,99.4,-9999.0,'1111122,1111122,1111122' 
DISL,ioos:station:DISL:MHPA:1,2013-03-04T06:00:00Z,30.6671,-87.9365,8.5,0.62,88.0,-9999.0,'1111122,1111122,1111122' 
DISL,ioos:station:DISL:MHPA:1,2013-03-04T06:30:00Z,30.6671,-87.9365,8.5,0.21,61.41,-9999.0,'1111122,1111122,1111122' 
DISL,ioos:station:DISL:MHPA:1,2013-03-04T07:00:00Z,30.6671,-87.9365,8.5,0.36,61.46,-9999.0,'1111122,1111122,1111122' 
DISL,ioos:station:DISL:MHPA:1,2013-03-04T07:30:00Z,30.6671,-87.9365,8.5,0.76,86.6,-9999.0,'1111122,1111122,1111122' 
DISL,ioos:station:DISL:MHPA:1,2013-03-04T08:00:00Z,30.6671,-87.9365,8.5,0.5,77.2,-9999.0,'1111122,1111122,1111122' 
DISL,ioos:station:DISL:MHPA:1,2013-03-04T08:30:00Z,30.6671,-87.9365,8.5,0.81,79.2,-9999.0,'1111122,1111122,1111122' 
DISL,ioos:station:DISL:MHPA:1,2013-03-04T09:00:00Z,30.6671,-87.9365,8.5,0.3,106.9,-9999.0,'1111122,1111122,1111122' 
DISL,ioos:station:DISL:MHPA:1,2013-03-04T09:30:00Z,30.6671,-87.9365,8.5,0.73,82.6,-9999.0,'1111122,1111122,1111122' 
DISL,ioos:station:DISL:MHPA:1,2013-03-04T10:00:00Z,30.6671,-87.9365,8.5,0.41,42.86,-9999.0,'1111122,1111122,1111122' 
DISL,ioos:station:DISL:MHPA:1,2013-03-04T10:30:00Z,30.6671,-87.9365,8.5,0.19,53.98,-9999.0,'1111122,1111122,1111122' 
DISL,ioos:station:DISL:MHPA:1,2013-03-04T11:00:00Z,30.6671,-87.9365,8.5,0.65,59.53,-9999.0,'1111122,1111122,1111122' 
DISL,ioos:station:DISL:MHPA:1,2013-03-04T11:30:00Z,30.6671,-87.9365,8.5,0.7,112.3,-9999.0,'1111122,1111122,1111122' 
DISL,ioos:station:DISL:MHPA:1,2013-03-04T12:00:00Z,30.6671,-87.9365,8.5,0.61,91.4,-9999.0,'1111122,1111122,1111122' 
DISL,ioos:station:DISL:MHPA:1,2013-03-04T12:30:00Z,30.6671,-87.9365,8.5,0.75,62.01,-9999.0,'1111122,1111122,1111122' 
DISL,ioos:station:DISL:MHPA:1,2013-03-04T13:00:00Z,30.6671,-87.9365,8.5,1.29,118.1,-9999.0,'1111122,1111122,1111122' 
DISL,ioos:station:DISL:MHPA:1,2013-03-04T13:30:00Z,30.6671,-87.9365,8.5,2.12,104.7,-9999.0,'1111122,1111122,1111122' 
DISL,ioos:station:DISL:MHPA:1,2013-03-04T14:00:00Z,30.6671,-87.9365,8.5,2.18,104.8,-9999.0,'1111122,1111122,1111122' 
DISL,ioos:station:DISL:MHPA:1,2013-03-04T14:30:00Z,30.6671,-87.9365,8.5,2.86,114.2,-9999.0,'1111122,1111122,1111122' 
DISL,ioos:station:DISL:MHPA:1,2013-03-04T15:00:00Z,30.6671,-87.9365,8.5,3.88,147.9,-9999.0,'1111122,1111122,1111122' 
DISL,ioos:station:DISL:MHPA:1,2013-03-04T15:30:00Z,30.6671,-87.9365,8.5,5.24,153.4,-9999.0,'1111122,1111122,1111122' 
DISL,ioos:station:DISL:MHPA:1,2013-03-04T16:00:00Z,30.6671,-87.9365,8.5,5.53,171.1,-9999.0,'1111122,1111122,1111122' 
DISL,ioos:station:DISL:MHPA:1,2013-03-04T16:30:00Z,30.6671,-87.9365,8.5,5.55,177.2,-9999.0,'1111122,1111122,1111122' 
DISL,ioos:station:DISL:MHPA:1,2013-03-04T17:00:00Z,30.6671,-87.9365,8.5,5.0,185.9,-9999.0,'1111122,1111122,1111122' 
DISL,ioos:station:DISL:MHPA:1,2013-03-04T17:30:00Z,30.6671,-87.9365,8.5,4.79,196.8,-9999.0,'1111122,1111122,1111122' 
DISL,ioos:station:DISL:MHPA:1,2013-03-04T18:00:00Z,30.6671,-87.9365,8.5,4.66,193.2,-9999.0,'1111122,1111122,1111122' 
DISL,ioos:station:DISL:MHPA:1,2013-03-04T18:30:00Z,30.6671,-87.9365,8.5,5.27,184.5,-9999.0,'1111122,1111122,1111122' 
DISL,ioos:station:DISL:MHPA:1,2013-03-04T19:00:00Z,30.6671,-87.9365,8.5,5.91,182.6,-9999.0,'1111122,1111122,1111122' 
DISL,ioos:station:DISL:MHPA:1,2013-03-04T19:30:00Z,30.6671,-87.9365,8.5,6.38,183.4,-9999.0,'1111122,1111122,1111122' 
DISL,ioos:station:DISL:MHPA:1,2013-03-04T20:00:00Z,30.6671,-87.9365,8.5,6.48,170.1,-9999.0,'1111122,1111122,1111122' 
DISL,ioos:station:DISL:MHPA:1,2013-03-04T20:30:00Z,30.6671,-87.9365,8.5,8.06,165.5,-9999.0,'1111122,1111122,1111122' 
DISL,ioos:station:DISL:MHPA:1,2013-03-04T21:00:00Z,30.6671,-87.9365,8.5,7.21,165.9,-9999.0,'1111122,1111122,1111122' 
DISL,ioos:station:DISL:MHPA:1,2013-03-04T21:30:00Z,30.6671,-87.9365,8.5,7.57,167.3,-9999.0,'1111122,1111122,1111122' 
DISL,ioos:station:DISL:MHPA:1,2013-03-04T22:00:00Z,30.6671,-87.9365,8.5,7.89,170.3,-9999.0,'1111122,1111122,1111122' 
DISL,ioos:station:DISL:MHPA:1,2013-03-04T22:30:00Z,30.6671,-87.9365,8.5,7.59,159.4,-9999.0,'1111122,1111122,1111122' 
DISL,ioos:station:DISL:MHPA:1,2013-03-04T23:00:00Z,30.6671,-87.9365,8.5,6.46,161.5,-9999.0,'1111122,1111122,1111122' 
DISL,ioos:station:DISL:MHPA:1,2013-03-04T23:30:00Z,30.6671,-87.9365,8.5,6.71,159.1,-9999.0,'1111122,1111122,1111122' 
DISL,ioos:station:DISL:MHPA:1,2013-03-05T00:00:00Z,30.6671,-87.9365,8.5,5.27,158.7,-9999.0,'1111122,1111122,1111122' 
DISL,ioos:station:DISL:MHPA:1,2013-03-05T00:30:00Z,30.6671,-87.9365,8.5,4.83,158.8,-9999.0,'1111122,1111122,1111122' 
DISL,ioos:station:DISL:MHPA:1,2013-03-05T01:00:00Z,30.6671,-87.9365,8.5,4.69,150.4,-9999.0,'1111122,1111122,1111122' 
DISL,ioos:station:DISL:MHPA:1,2013-03-05T01:30:00Z,30.6671,-87.9365,8.5,4.98,149.1,-9999.0,'1111122,1111122,1111122' 
DISL,ioos:station:DISL:MHPA:1,2013-03-05T02:00:00Z,30.6671,-87.9365,8.5,4.65,140.4,-9999.0,'1111122,1111122,1111122' 
DISL,ioos:station:DISL:MHPA:1,2013-03-05T02:30:00Z,30.6671,-87.9365,8.5,4.41,142.3,-9999.0,'1111122,1111122,1111122' 
DISL,ioos:station:DISL:MHPA:1,2013-03-05T03:00:00Z,30.6671,-87.9365,8.5,3.9,140.5,-9999.0,'1111122,1111122,1111122' 
DISL,ioos:station:DISL:MHPA:1,2013-03-05T03:30:00Z,30.6671,-87.9365,8.5,4.6,151.4,-9999.0,'1111122,1111122,1111122' 
DISL,ioos:station:DISL:MHPA:1,2013-03-05T04:00:00Z,30.6671,-87.9365,8.5,5.91,160.0,-9999.0,'1111122,1111122,1111122' 
DISL,ioos:station:DISL:MHPA:1,2013-03-05T04:30:00Z,30.6671,-87.9365,8.5,6.04,157.9,-9999.0,'1111122,1111122,1111122' 